Dewpoint
7 8 8 9 10 10 11 11 13 12 12 11 10 9 8 8 6 5 4 4 3 4 4 2 3 8 10 11 13 11 12 13 14 14 14 12 12 16 18 21 23 24 25 27 28 28 29 31 31 32 34 37 37 37 38 39 40 41 42 42 43 43 43 42 43 43 44 44 45 47 51 57 59 58
5 7 8 9 9 10 10 11 11 11 12 11 10 11 10 10 7 5 5 5 4 3 3 3 1 8 9 12 14 12 11 14 13 14 12 10 10 17 18 17 18 22 24 24 24 27 29 30 31 32 34 36 37 37 38 39 40 41 41 42 42 41 42 42 42 42 43 43 44 47 53 57 57 57
6 6 5 6 6 7 7 9 10 11 12 10 10 11 12 10 8 8 6 4 5 5 4 3 2 3 10 11 10 8 10 14 12 12 11 10 15 16 13 14 17 19 21 21 23 24 26 28 29 30 32 34 35 36 37 38 39 40 40 41 41 41 40 41 41 41 41 43 44 45 55 56 56 56
4 5 5 5 4 5 5 6 7 8 10 10 10 10 10 10 9 9 7 5 5 4 4 3 3 7 7 9 8 7 9 10 13 11 11 10 13 10 9 13 15 17 19 20 21 24 27 28 29 30 31 32 33 34 35 37 37 38 40 40 38 39 40 42 42 42 41 43 44 46 55 56 56 56
4 5 6 6 5 5 4 5 6 7 7 8 9 9 9 9 9 8 7 6 6 6 5 4 4 6 8 6 8 7 7 8 8 11 9 9 8 7 8 8 13 15 16 18 19 21 25 26 26 27 27 29 31 33 34 35 37 39 39 37 37 38 40 41 40 40 41 43 44 45 51 57 57 56
4 5 4 3 4 5 5 5 5 4 5 5 7 7 8 8 8 8 7 6 5 5 4 5 6 6 7 5 7 6 6 5 9 7 7 6 7 6 6 6 8 14 15 17 19 23 25 25 25 24 25 25 28 31 32 35 37 36 34 35 35 37 38 39 36 39 41 42 44 44 47 52 56 57
5 5 5 4 3 3 4 4 5 5 4 4 4 5 6 6 7 7 7 5 3 3 4 4 5 6 6 5 6 7 6 8 6 5 5 4 4 5 6 7 6 13 16 18 20 22 23 22 23 24 24 23 25 29 31 31 31 32 32 33 34 35 36 36 36 38 39 40 43 44 45 48 51 53
4 5 4 3 3 4 3 3 3 4 4 4 4 3 3 4 5 5 6 6 5 5 4 4 5 6 6 6 6 6 7 5 5 4 4 5 4 4 5 6 6 10 17 18 18 19 18 19 20 21 22 23 24 25 26 28 29 30 31 32 33 33 34 35 36 37 38 39 40 42 44 46 47 49
2 2 4 3 4 4 3 3 2 3 2 3 4 3 4 4 4 4 6 6 5 5 4 4 6 8 8 7 7 7 5 5 4 4 4 3 3 4 4 5 5 12 15 15 16 16 17 17 19 20 22 24 25 26 26 27 28 29 30 31 31 32 33 34 35 35 36 37 38 39 42 43 43 44
3 4 4 3 5 4 3 3 3 3 2 2 3 2 3 3 1 3 3 4 5 5 6 5 5 5 7 5 6 6 5 4 4 4 3 3 3 4 5 6 6 6 6 7 9 13 14 16 19 20 21 23 25 27 27 27 27 28 29 30 30 31 32 33 34 34 35 36 37 37 39 40 41 42
3 3 4 5 4 4 4 3 3 3 3 3 2 3 2 2 1 2 2 2 3 4 5 5 5 7 6 6 6 5 5 5 4 3 3 3 3 5 5 6 7 7 7 10 13 13 14 15 15 17 19 20 22 25 27 28 28 28 29 30 31 31 32 32 33 33 34 35 36 36 37 38 40 41
5 5 5 5 5 5 4 4 4 4 3 3 2 3 3 2 2 2 2 1 2 2 2 3 3 4 5 4 5 4 4 3 3 4 3 2 3 4 5 6 6 7 9 8 9 11 12 12 14 17 17 19 21 23 25 25 26 27 29 30 31 31 31 32 32 33 33 34 35 36 37 37 38 39
4 4 5 5 5 5 7 8 7 7 6 2 2 2 3 2 2 2 2 2 2 0 -1 1 0 4 4 3 1 1 0 2 2 3 2 4 4 5 6 6 5 6 6 9 9 9 8 10 11 12 13 14 18 20 23 24 24 27 30 30 31 32 32 32 32 32 33 34 34 35 36 37 37 38
5 4 5 5 8 8 9 9 9 9 9 9 5 3 2 3 2 1 1 1 1 1 1 1 1 1 2 2 2 2 3 3 3 4 4 3 4 5 4 5 6 7 9 7 7 8 10 11 11 11 12 15 18 19 20 20 24 28 30 30 31 32 32 32 31 31 32 33 34 35 36 36 37 37
5 5 5 4 6 8 9 8 9 10 10 10 11 10 9 8 3 1 1 1 1 1 0 0 -2 1 1 2 2 3 3 3 4 4 3 3 0 -1 1 3 6 9 8 8 9 9 9 10 11 12 14 16 18 19 20 24 27 29 30 30 31 32 33 33 32 31 32 34 35 34 35 35 35 36
6 5 4 4 3 4 5 5 7 9 9 9 10 11 12 13 13 11 4 2 1 0 1 1 1 -0 -0 0 -1 2 0 3 3 3 2 1 1 3 4 5 3 7 10 9 8 7 8 9 12 13 15 17 19 20 23 26 27 28 30 30 30 33 34 34 33 32 33 34 35 34 35 35 36 35
6 5 4 3 3 2 7 7 5 5 7 9 9 10 10 12 14 15 15 13 5 3 2 1 1 1 1 0 1 3 2 3 0 -0 -2 -2 2 4 4 5 6 8 9 8 4 5 7 9 12 14 16 18 19 21 23 26 27 28 29 29 30 32 33 34 33 33 34 34 35 34 34 35 35 35
5 5 4 3 2 2 3 5 6 5 5 5 6 7 9 10 12 13 16 17 15 10 4 3 2 1 2 3 3 4 7 2 1 -2 -1 -1 1 4 5 6 8 8 7 4 3 3 7 9 13 14 16 19 20 21 23 26 27 28 28 27 28 31 32 33 33 33 33 33 33 35 34 35 35 35
6 4 4 3 2 2 2 4 6 5 4 4 4 4 5 8 10 12 13 14 15 15 9 6 4 3 4 5 5 4 5 6 5 4 4 5 6 7 3 2 2 5 5 5 8 1 8 12 13 14 17 19 20 21 24 26 28 28 28 27 27 27 30 33 33 32 33 33 33 34 34 34 34 35
7 5 4 3 2 2 2 5 10 10 6 4 3 3 3 5 7 10 14 16 16 16 14 10 8 7 6 11 6 7 5 6 5 6 6 4 2 2 1 1 -1 1 7 11 11 7 9 13 14 15 17 19 20 21 21 24 27 29 29 29 28 27 27 30 32 32 32 33 32 32 34 34 34 34
6 5 4 4 3 3 3 7 11 13 12 6 4 4 4 5 6 8 13 16 18 18 18 19 17 17 17 17 18 17 16 11 7 3 2 4 5 5 4 2 -2 1 3 7 10 6 9 14 15 16 18 20 20 20 20 21 25 28 29 29 29 27 27 27 30 31 31 31 32 32 33 34 33 34
6 5 7 6 4 4 4 10 13 14 11 9 7 5 5 6 6 7 11 14 15 19 19 19 20 19 18 17 17 17 17 17 15 6 5 6 8 7 5 1 -3 1 5 8 14 13 13 15 16 18 18 17 13 18 20 21 22 26 28 29 29 28 28 27 27 29 30 31 31 31 31 32 34 34
6 6 7 7 6 5 7 13 15 15 13 10 10 7 6 6 6 7 8 11 13 13 14 16 18 18 19 17 17 17 17 17 16 12 9 10 9 6 4 2 -0 1 4 9 16 12 11 13 14 18 14 13 16 19 20 21 22 25 26 26 25 29 30 29 30 30 31 31 30 31 31 31 35 33
6 6 6 7 9 14 13 14 16 16 15 11 11 10 7 6 5 7 8 10 12 12 11 11 13 14 15 18 19 17 17 17 17 18 14 13 11 9 7 5 4 2 5 13 14 9 8 12 14 18 15 13 12 17 20 20 22 24 26 27 26 28 30 31 30 31 30 31 31 30 30 31 34 32
6 6 6 6 9 14 15 16 16 16 16 15 12 11 9 8 8 10 8 9 12 11 10 10 10 11 12 13 15 16 17 17 17 18 19 16 15 12 11 10 8 7 8 11 14 7 8 14 15 15 11 12 16 17 18 19 21 23 25 27 26 26 27 27 28 27 31 31 31 32 31 30 34 32
7 6 6 6 8 12 16 17 17 16 16 17 14 12 16 16 16 11 10 9 11 11 11 11 11 11 10 10 9 9 11 12 13 13 14 17 17 16 15 12 10 5 9 10 16 13 13 13 12 11 11 13 14 17 16 17 19 21 23 26 26 26 27 26 26 26 27 27 28 31 30 31 31 34
8 7 7 7 9 14 17 17 16 16 17 16 15 18 19 18 16 14 12 11 11 11 11 11 11 10 10 9 8 7 8 8 8 8 9 10 14 16 15 14 11 11 12 6 12 12 9 6 11 8 10 14 14 15 16 16 17 19 21 23 25 26 26 26 26 27 27 27 27 31 31 31 32 33
8 8 8 8 14 16 17 17 15 16 15 14 17 18 19 17 16 15 12 11 11 11 11 10 10 9 10 10 10 10 9 9 8 9 8 8 8 11 12 13 13 12 11 7 6 7 5 6 8 9 12 14 14 14 14 18 18 19 20 22 24 25 24 24 23 26 27 28 27 28 27 28 29 30
9 11 14 15 16 16 17 15 15 14 14 17 17 16 17 18 16 16 13 11 11 10 10 10 9 9 10 11 11 11 10 9 7 6 6 5 6 6 7 7 10 11 12 10 7 6 9 10 10 10 14 16 16 16 17 16 18 18 20 21 21 24 24 26 25 26 27 27 27 27 27 27 28 29
13 15 16 16 14 14 12 11 12 13 13 14 15 16 17 18 17 16 13 12 11 10 9 9 10 11 11 12 13 12 9 6 8 6 6 5 6 6 8 11 13 12 12 10 9 8 12 14 14 13 15 17 18 17 18 17 16 18 20 20 21 23 24 26 25 24 25 25 26 27 27 27 27 28
12 12 13 12 13 12 12 13 14 14 15 15 15 15 16 18 18 17 14 12 11 11 11 11 12 12 12 13 14 13 12 10 8 8 9 7 6 8 7 10 11 9 8 7 10 10 12 15 16 16 16 17 17 18 19 19 18 17 17 19 20 18 23 25 26 25 24 24 25 25 26 27 27 27
8 12 13 13 11 11 11 11 12 12 12 13 14 16 17 18 19 18 16 15 14 13 12 13 13 12 12 14 15 16 15 15 16 14 13 9 6 9 11 11 11 11 10 7 8 11 16 15 15 17 17 17 17 18 19 18 16 16 17 17 18 20 22 23 26 26 26 25 24 24 24 25 25 26
7 11 10 10 9 9 10 10 10 11 13 14 13 14 17 18 19 17 16 15 14 15 14 14 14 14 13 14 16 17 18 18 18 18 15 12 12 15 15 13 14 14 14 13 12 10 13 15 17 17 17 18 20 20 19 16 15 14 13 17 18 18 20 24 23 23 25 25 24 24 24 24 25 25
5 8 8 8 8 8 8 8 9 9 11 12 14 15 15 17 18 17 16 15 15 15 15 14 14 14 13 12 11 11 13 14 16 18 19 16 15 16 15 14 14 16 16 15 12 11 12 13 14 16 17 19 20 21 20 18 18 18 19 19 17 16 18 21 22 22 23 23 23 22 22 22 23 24
3 5 7 7 7 8 7 7 7 9 10 12 13 14 15 15 16 17 17 16 15 15 15 14 14 13 12 10 9 9 8 10 12 13 16 18 17 17 16 15 15 15 15 15 12 10 12 14 16 16 17 18 18 18 20 19 18 19 19 17 15 14 15 18 21 19 18 18 21 21 21 21 21 22
1 4 5 6 6 7 6 6 7 8 8 10 13 14 15 16 16 16 16 16 15 14 14 13 12 12 11 10 10 9 8 9 9 10 11 12 15 17 17 17 16 17 17 15 14 12 13 16 16 15 14 14 14 11 6 16 20 19 18 15 13 11 11 15 21 20 19 17 17 19 19 19 20 20
0 2 4 5 6 6 5 4 5 6 8 9 11 14 15 15 16 16 15 15 14 13 13 12 11 11 11 11 11 12 11 9 4 6 8 9 9 11 13 15 17 17 18 18 18 17 17 17 17 14 12 12 11 9 8 6 18 22 22 20 15 10 12 13 19 21 20 19 19 19 18 19 18 19
-2 0 1 3 4 5 6 6 6 6 8 9 10 13 14 14 15 15 14 14 13 12 12 11 10 10 10 10 11 11 11 10 8 6 8 7 6 2 4 8 10 13 14 15 15 16 18 18 17 15 9 6 6 8 7 3 -1 8 21 19 17 13 9 12 16 18 19 17 17 14 19 20 19 19
-1 -1 0 1 3 3 4 6 8 7 7 9 10 13 14 13 13 13 13 13 12 11 11 10 9 9 9 9 10 10 9 9 9 9 9 7 5 1 2 5 7 7 9 10 10 13 15 17 18 18 16 13 9 5 5 2 3 6 10 21 17 9 8 13 17 18 19 17 17 20 21 23 24 25
1 1 1 1 2 3 4 5 6 9 9 9 12 13 12 12 11 12 12 11 11 10 10 9 9 8 6 7 7 6 6 7 7 7 8 7 9 8 7 10 9 8 7 9 9 11 14 17 18 19 17 16 16 14 14 10 3 1 5 11 22 18 10 14 19 19 17 15 16 17 16 17 17 18
1 0 1 2 2 2 4 4 6 7 10 11 11 12 11 11 11 11 11 10 9 9 8 8 8 7 6 5 4 6 5 3 4 4 7 7 9 9 10 13 12 13 14 15 15 12 13 15 18 19 19 17 15 19 18 16 13 4 0 9 18 23 19 17 17 21 19 17 17 18 17 15 14 15
1 -0 -0 1 2 2 4 4 5 7 8 10 11 11 10 10 10 11 10 9 8 8 7 6 6 5 4 3 3 3 3 3 3 5 8 6 5 6 8 8 6 7 9 11 12 11 11 12 15 16 16 17 18 17 15 15 13 9 6 10 18 24 23 25 25 20 18 18 17 16 15 17 17 15
-2 1 0 1 2 3 4 4 5 7 9 10 10 10 10 10 10 10 8 8 7 6 6 4 3 4 2 0 -0 1 1 1 2 3 6 7 6 6 7 8 7 7 9 10 9 8 11 11 13 17 18 18 18 18 16 14 9 6 10 14 17 21 23 25 25 24 23 22 21 17 17 17 17 14
-7 -4 1 1 1 2 2 2 3 4 6 9 9 9 9 9 9 8 7 6 6 5 4 3 2 2 0 -2 -2 -1 -1 -2 -2 1 3 5 6 6 7 9 10 12 13 13 10 8 9 10 11 16 17 16 18 18 17 16 12 11 12 15 17 19 20 21 22 22 22 23 24 24 24 23 23 21
-8 -7 -6 -4 -3 -2 -1 1 2 3 5 7 8 8 8 8 6 6 5 5 4 3 2 1 0 -1 -2 -2 1 0 -2 4 0 -1 1 3 4 6 8 8 8 8 9 10 10 9 9 10 10 12 12 11 14 15 16 15 14 12 13 14 16 19 19 19 18 17 17 17 21 24 25 25 25 24